Tampico, México

8:26 PM CST en Noviembre 20, 2017 (GMT -0600)
Gen Francisco Javier Mina

Tiempo Historia de MMTM - Noviembre, 2017

Change the Weather History Date:

Martes, Noviembre 14, 2017

  Actual Average Record
Temperature  
Temperatura media 78 ° F -  
Temperatura máxima 86 ° F 78 ° F 87 ° F (2006)
Temperatura mínima 70 ° F 61 ° F 49 ° F (2014)
Cooling Degree Days 13    
Growing Degree Days 28 (Base 50)    
Moisture  
Punto de rocío 69 ° F    
Average Humidity 75    
Maximum Humidity 94    
Minimum Humidity 41    
Precipitación  
Precipitación 0.00 pul 0.05 pul - ()
Presión al nivel del mar  
Presión al nivel del mar 30.08 pul    
Viento  
Velocidad del viento 7 mph ()    
Velocidad máxima del viento 14 mph    
Max Gust Speed -    
Visibilidad 9.1 Millas    
Eventos      
Averages and records for this station are not official NWS values.
T = Trace of Precipitation, MM = Missing Value Source: Averaged Metar Reports

Daily Weather History Graph

Daily Weather History Graph

Search for Another Location

Airport or City:

Trip Planner

Search our weather history database for the weather conditions in past years. The results will help you decide how hot, cold, wet, or windy it might be!

Date:

Astronomía

Nov. 14, 2017 Salida Puesta
Hora real 6:43 AM CST 5:48 PM CST
Crepúsculo civil 6:19 AM CST 6:11 PM CST
Crepúsculo náutico 5:52 AM CST 6:38 PM CST
Crepúsculo astronómico 5:26 AM CST 7:05 PM CST
Luna 3:20 AM CST (11/14) 3:42 PM CST (11/14)
Horas de luz 11h 52m
Horas de luz
11h 04m
Creciente menguante, 13% of the Moon is Illuminated
Nov 14
Creciente menguante
Nov 18
Nueva
Nov 26
Cuarto creciente
Dic 3
Luna llena
Dic 10
Cuarto menguante

Hourly Weather History & Observations

Hora (CST) Temp. Índice de calor Punto de rocío Humedad Presión Visibilidad Wind Dir Velocidad del viento Velocidad de ráfagas Precip Eventos Condiciones
2:40 AM 73 ° F - 69 ° F 82% 30.17 pul 6 mi NO 4.5 mph - -   Parcialmente nublado
5:02 AM 71.6 ° F - 69.8 ° F 94% 30.09 pul 20.0 mi Norte - - N/A   Parcialmente nublado
5:40 AM 71 ° F - 67 ° F 85% 30.14 pul 6 mi NO 6.7 mph - -   Nubes dispersas
5:47 AM 71.6 ° F - 69.8 ° F 94% 30.12 pul 10.0 mi Norte - - N/A   Muy nublado
6:43 AM 71.6 ° F - 69.8 ° F 94% 30.12 pul 10.0 mi Norte - - N/A   Muy nublado
7:42 AM 73.4 ° F - 71.6 ° F 94% 30.13 pul 10.0 mi Norte - - N/A   Muy nublado
8:40 AM 77 ° F - 65 ° F 58% 30.18 pul 15 mi NNO 4.5 mph - -   Nubes dispersas
8:49 AM 75.2 ° F - 69.8 ° F 83% 30.14 pul 7.0 mi Oeste 9.2 mph - N/A   Muy nublado
9:44 AM 77.0 ° F - 69.8 ° F 78% 30.14 pul 7.0 mi Oeste 9.2 mph - N/A   Muy nublado
10:40 AM 80.6 ° F 83.9 ° F 69.8 ° F 70% 30.13 pul 7.0 mi Oeste 9.2 mph - N/A   Nubes dispersas
11:40 AM 84 ° F - 65 ° F 43% 30.14 pul 15 mi Norte 4.5 mph - -   Muy nublado
11:41 AM 80.6 ° F 83.9 ° F 69.8 ° F 70% 30.05 pul 7.0 mi NNE 9.2 mph - N/A   Nubes dispersas
12:44 PM 80.6 ° F 83.9 ° F 69.8 ° F 70% 30.07 pul 8.0 mi NNO 9.2 mph - N/A   Nubes dispersas
1:42 PM 82.4 ° F 86.3 ° F 69.8 ° F 66% 30.03 pul 8.0 mi NNE 11.5 mph - N/A   Nubes dispersas
2:44 PM 80.6 ° F 83.9 ° F 69.8 ° F 70% 30.02 pul 8.0 mi Norte 11.5 mph - N/A   Nubes dispersas
2:45 PM 85 ° F - 65 ° F 41% 30.06 pul 15 mi ENE 6.7 mph - -   Nubes dispersas
3:43 PM 80.6 ° F 83.9 ° F 69.8 ° F 70% 30.00 pul 8.0 mi Norte 13.8 mph - N/A   Parcialmente nublado
4:46 PM 78.8 ° F - 69.8 ° F 74% 30.00 pul 8.0 mi NNE 13.8 mph - N/A   Despejado
5:45 PM 79 ° F - 68 ° F 61% 30.05 pul 15 mi ENE 6.7 mph - -   Nubes dispersas
5:45 PM 78.8 ° F - 69.8 ° F 74% 29.96 pul 8.0 mi NNE 13.8 mph - N/A   Despejado
6:40 PM 77.0 ° F - 69.8 ° F 78% 30.02 pul 7.0 mi NNE 13.8 mph - N/A   Despejado
7:41 PM 75.2 ° F - 68.0 ° F 78% 30.03 pul 7.0 mi NNE 13.8 mph - N/A   Despejado
8:40 PM 76 ° F - 67 ° F 66% 30.08 pul 6 mi NE 4.5 mph - -  
8:41 PM 75.2 ° F - 68.0 ° F 78% 30.04 pul 7.0 mi NNE 13.8 mph - N/A   Desconocido
9:41 PM 75.2 ° F - 68.0 ° F 78% 30.06 pul 7.0 mi NNE 13.8 mph - N/A   Despejado
10:46 PM 71.6 ° F - 66.2 ° F 83% 30.03 pul 7.0 mi NNE 11.5 mph - N/A   Despejado
11:40 PM 72 ° F - 69 ° F 87% 30.06 pul 6 mi Sin viento Sin viento - -   Nubes dispersas